Showing default

BANE, 58465

Orbit data source: Space-Track

BANE, 58465 is a payload satellite owned by York Space Sys (US) in SSO that was launched on Fri, 01 Dec 2023 UTC via an FALCON 9 launch vehicle from the Air Force Western Test Range (AFWTR). Payload-class satellites include a variety of spacecraft equipped with specific instruments for various scientific and technological missions. These include communications satellites like Starlink; space stations such as the ISS; scientific satellites like the Hubble; Earth observation satellites from companies like Planet Labs, Umbra, and HawkEye 360; GPS; miniature CubeSats for education and research; and military/defense satellites.

Not visible in the next 10 days
Identifier
58465, 2023-185D
Orbit
SSO
Country
Flag of USUS
Related business
Manufacturer
York Space Sys
Mission
Operational Commercial Technology
Bus & Motor
S-CLASS, Unknown motor
Mass
~150 kg wet, ~150 kg dry
Launch date (UTC)
2023-12-01 (3 years ago)
Launch vehicle
FALCON 9
Launch site
Air Force Western Test Range (AFWTR)
Object type
Payload
Rocket body
Debris
Shape & HBR
Box + 4 Pan, 1.0 m
Radar Cross Section
1.244 m², Large (>1 m²)

Expand to show TLE details & history
Last TLE update: 1 week ago

TLE from 1 week ago
0 BANE
1 58465U 23185D   26155.19692491  .00685563  22905-3  10814-2 0  9997
2 58465  97.3264 243.4742 0007376 216.6501 143.4276 16.03871374140766
Epoch: 2026-06-04T04:43Z
TLE epoch observation values (Epoch: 2026-06-04T04:43:34.312Z)
Latitude
0.00002°
Longitude
-80.06342°
Altitude
270.851 km
Speed
7.742 km/s
True Right ascension
16h 13m 53s
True Declination
0° 00' 00"
Sunlit
Object was in full shadow at epoch
Visualization orbit readout
Latitude
Unknown
Longitude
Unknown
Altitude
Unknown
Speed
Unknown
Apparent Right ascension
Unknown
Apparent Declination
Unknown
Sunlit
N/A
Visualization observer readout
Local Sidereal Time
04:24:36
Azimuth
Unknown
Elevation
Unknown
Doppler factor
Unknown
Orbital elements
Apogee altitude
265.457 km
Perigee altitude
255.664 km
Semi-major axis
6,638.698 km
Eccentricity
0.00074
Inclination
97.3264°
RAAN
243.4742°
Arg. of periapsis
216.6501°
True anomaly
143.47792°
Mean anomaly
143.4276°
Eccentric anomaly
143.45277°
Mean motion
4.01253 °/min
Orbital period
89.72 mins
BSTAR
0.0010814
Loading maneuver chart data...
Computing Atmospheric mass density...
Loading historical data...
Loading historical data...
Loading historical data...
Loading historical data...
Loading historical data...
Loading historical data...
Loading historical data...

Documentation

Showing up to 5 results
|